Terminal Aerodrome Forecast
Issued by NWS

Home | Current Version | Previous Version | Text Only | Print | Product List | Glossary On
Versions: 1 2 3 4 5 6 7 8 9 10 11 12 13 14 15 16 17 18 19 20 21 22 23 24 25 26 27 28 29 30 31 32 33 34 35 36 37 38 39 40 41 42 43 44 45 46 47 48 49 50
423
FTUS46 KEKA 161329 AAA
TAFACV
TAF AMD
KACV 161329Z 1613/1712 VRB03KT 6SM BR OVC005
      TEMPO 1614/1617 1SM BR OVC002
     FM161900 29008KT 6SM HZ SCT006
     FM170000 31008KT P6SM SKC
     FM170200 VRB04KT 6SM BR BKN005=

USA.gov is the U.S. government's official web portal to all federal, state and local government web resources and services.